Simultaneous Nadir Overpasses (SNOs) Predictions

Prediction of SNOs between METOP-B and TERRA Satellite Orbit:

Table of predicted SNOs for the next 14.0 days since TLE Epoch: 12/11/2021
Index Date (METOP-B) Time (METOP-B) Lat,Lon (METOP-B) SZA (METOP-B ) Date (TERRA) Time (TERRA) Lat,Lon (TERRA) SZA (TERRA ) Distance(km) Time Diff (sec)
1 12/13/2021 13:28:18 -81.25,-158.10 73.13 12/13/2021 13:28:55 -81.26,-158.10 73.11 0.62 37
2 12/13/2021 14:18:58 81.26, 9.63 106.93 12/13/2021 14:18:21 81.26, 9.64 106.91 0.35 37
3 12/16/2021 09:02:39 -81.25, -91.84 73.04 12/16/2021 09:03:05 -81.24, -91.89 73.03 0.96 26
4 12/16/2021 09:53:18 81.27, 76.27 107.06 12/16/2021 09:52:30 81.27, 76.20 107.04 1.29 48
5 12/19/2021 04:37:00 -81.25, -25.21 72.96 12/19/2021 04:37:15 -81.25, -25.34 72.97 2.30 15
6 12/19/2021 05:27:40 81.26, 142.50 107.09 12/19/2021 05:26:41 81.25, 142.34 107.04 2.86 59
7 12/22/2021 00:11:22 -81.25, 41.02 73.00 12/22/2021 00:11:25 -81.25, 41.16 72.98 2.46 3
8 12/22/2021 01:02:02 81.26,-151.29 107.05 12/22/2021 01:00:51 81.25,-151.18 107.03 1.88 71
9 12/24/2021 18:55:03 81.24, -60.36 106.88 12/24/2021 18:56:08 81.23, -60.38 106.90 0.66 65



Historial Predications of SNOs between METOP-B and TERRA
